Find Starlink 4082

NORAD ID: 52658 Int'l Des: 2022-053 Owner: SPXS Country: US Constellation: starlink operational
LEOCIRCULAR

实时位置

正在加载3D地球...

关于 Starlink 4082

正在加载描述...

即将过境

Passes for default location (London). Set your location on the main map for personalized predictions.

高度历史

Loading altitude history...

两行轨道根数

1 52658U 22053C 26125.66136671 .00000332 00000-0 38966-4 0 9994
2 52658 53.2170 258.3637 0001162 87.6633 272.4492 15.08841093219835
Epoch: May 5, 2026 • Age: 10 hours

当前状态

高度 540.7 km
速度 7.60 km/s
星下点 28.24°N, 158.28°E
发射日期 May 18, 2022
运行时间 3.9 years
类型 internet

技术详情

分类 Payload
质量 297.00 kg
干质量 275.00 kg
总质量 297.00 kg
长度 0.20 m
直径 2.80 m
跨度 9.00 m
形状 Box + pan
制造商 SPXS
平台类型 Starlink
阶段状态 In Orbit
所有者/国家 SPXS/US

Most Searched